Wind_Speed
25 25 26 26 26 27 27 27 28 28 28 29 29 29 29 30 30 30 30 31 30 29 29 30 30 30 29 30 30 30 29 29 30 31 30 29 29 29
24 24 24 25 25 26 26 26 26 26 27 28 29 29 29 29 30 30 30 30 29 29 29 28 29 29 30 30 30 30 30 30 30 30 30 30 29 29
23 24 24 24 25 25 25 25 25 25 25 26 27 28 28 29 30 31 31 31 31 31 30 30 30 30 30 31 31 30 30 30 30 30 30 29 29 30
22 21 22 23 24 24 25 25 25 25 25 25 25 26 27 28 29 31 31 31 31 30 30 30 30 30 30 31 31 31 30 30 30 30 29 29 29 29
20 20 20 21 22 22 23 24 24 25 25 26 25 26 26 28 28 30 30 30 30 30 31 31 30 30 30 31 31 31 31 31 30 29 30 30 30 29
19 19 20 21 21 21 22 23 23 23 24 26 26 26 27 27 28 29 29 30 29 30 30 30 29 30 31 31 32 32 31 31 31 31 30 30 30 30
19 19 20 20 20 20 21 22 22 23 24 25 25 25 26 27 27 28 28 29 29 29 30 30 29 30 30 31 31 31 31 30 30 30 30 30 30 30
18 19 19 20 20 21 21 22 23 24 25 25 26 26 26 26 27 28 29 29 29 30 30 31 31 30 30 30 31 31 31 30 30 30 30 31 31 30
18 19 19 20 20 20 21 22 23 23 24 24 25 25 25 24 25 26 27 28 28 29 30 30 30 30 30 30 31 31 31 30 30 30 30 30 30 30
18 18 19 19 20 20 20 20 21 21 22 22 23 23 23 23 24 25 26 26 27 28 28 28 28 29 29 28 29 30 30 29 30 30 30 30 30 30
17 17 18 18 19 19 19 20 20 20 20 21 21 21 22 22 23 24 25 25 24 25 26 26 26 26 26 27 28 29 29 29 29 30 29 29 29 29
15 15 16 16 16 17 18 18 18 18 18 18 19 20 20 21 22 23 23 23 24 24 24 24 24 25 26 26 26 27 28 28 29 29 29 30 29 29
14 15 15 15 15 15 15 15 15 16 16 17 18 18 19 19 20 21 21 22 22 23 23 24 24 24 24 25 25 26 27 28 29 28 29 29 29 28
14 14 14 14 14 14 14 14 15 15 15 15 16 16 17 17 17 18 19 20 21 22 23 23 23 23 23 23 24 26 26 27 27 27 27 27 27 27
13 13 13 14 14 14 14 14 14 14 15 15 15 15 15 16 16 17 18 19 19 19 20 21 21 22 22 22 22 23 24 25 26 26 26 26 27 27
13 13 13 13 14 14 14 15 15 14 15 15 14 14 14 14 15 15 16 17 18 18 19 20 21 21 22 22 21 22 23 24 25 26 26 26 26 27
14 14 13 13 13 14 14 14 14 14 13 13 13 13 14 14 14 14 15 16 16 17 18 20 20 21 21 21 21 21 22 23 24 25 26 26 26 27
14 14 13 13 14 15 14 14 14 14 13 13 13 14 14 14 14 15 15 17 18 18 19 19 20 21 22 22 21 21 22 23 24 26 26 27 27 28
15 15 15 14 15 15 15 15 15 15 14 14 14 14 14 15 15 15 15 16 17 18 19 20 21 21 22 21 21 22 23 24 26 27 28 28 29 30
16 16 16 16 16 16 16 16 16 16 16 15 16 16 15 15 16 16 16 17 17 18 19 20 21 21 21 22 23 24 25 26 27 28 29 30 30 31
17 17 17 16 16 16 16 17 17 17 17 17 17 17 17 17 16 17 18 18 19 19 20 21 22 23 23 24 24 25 26 27 28 28 29 30 31 31
18 18 17 17 17 17 17 18 18 19 19 18 17 17 17 18 18 18 18 19 19 20 21 22 23 24 24 25 25 25 26 28 29 30 30 31 31 30
19 19 19 19 18 18 18 19 19 19 19 19 19 18 18 19 19 19 20 19 20 21 22 22 22 23 25 26 26 26 27 28 30 30 30 31 31 30
Wind_Direction
272 270 268 268 269 268 267 265 262 259 259 260 259 258 257 256 255 253 252 252 251 251 252 252 252 253 253 252 255 255 256 256 256 258 258 257 255 255
274 273 271 268 270 270 268 266 263 259 257 257 257 257 256 256 255 253 252 251 251 252 253 252 251 252 253 253 256 256 255 256 256 256 257 259 257 256
277 275 272 271 269 268 269 268 266 262 259 257 257 257 254 254 253 252 252 252 252 252 253 254 253 254 255 253 254 254 256 256 255 255 257 258 257 256
279 278 276 276 273 271 269 268 267 265 261 259 259 258 255 256 255 253 252 253 253 252 252 253 253 253 254 254 255 255 256 256 256 256 257 257 258 257
278 278 278 278 277 272 269 268 267 266 263 261 259 259 258 257 256 254 253 253 254 253 252 252 253 253 255 255 256 255 255 255 255 255 256 257 258 258
280 281 281 280 278 273 272 271 268 267 267 264 262 260 258 258 257 255 254 253 254 253 252 252 252 253 254 254 254 254 254 255 255 254 255 257 257 256
282 281 281 280 280 278 275 273 270 269 268 266 265 263 261 259 257 255 254 254 253 253 253 253 253 253 253 254 253 254 255 255 254 254 254 256 257 256
285 283 283 283 282 281 279 276 273 271 270 268 266 265 263 261 259 256 254 254 254 254 255 254 253 254 254 254 253 253 254 254 254 254 254 254 256 256
289 286 284 283 283 283 283 279 276 273 272 271 269 267 265 261 260 257 256 253 253 255 256 255 254 253 253 253 253 253 253 253 254 254 254 254 255 256
291 288 286 285 286 287 287 284 278 277 275 272 271 267 265 262 260 260 257 256 255 255 255 255 254 253 252 252 253 253 253 253 253 253 253 253 256 257
297 293 293 290 289 289 290 288 284 281 278 275 274 272 269 264 263 261 259 256 257 256 255 255 254 254 254 254 254 254 254 253 253 252 252 252 255 257
308 305 303 300 299 295 294 292 288 283 281 278 276 274 272 269 265 262 259 257 256 255 254 254 255 255 255 255 255 254 253 253 253 252 252 253 255 256
315 313 310 307 306 304 303 300 296 290 286 283 281 278 274 272 268 264 259 258 257 255 254 253 254 254 255 255 256 256 255 254 254 253 253 254 255 256
321 318 315 313 311 309 307 304 300 295 291 290 288 284 280 275 270 266 262 259 260 258 257 256 255 255 256 257 257 257 257 256 254 253 254 255 255 257
329 324 320 318 317 314 311 309 306 301 295 292 291 289 286 281 274 269 266 262 260 259 259 258 257 256 255 258 259 258 258 257 254 253 254 255 256 259
331 327 324 324 324 323 317 313 310 307 304 299 294 292 290 287 281 272 268 264 261 259 260 260 260 259 258 259 261 260 259 257 254 254 256 257 259 261
331 330 327 327 326 326 324 320 314 310 308 306 302 296 294 290 285 279 272 269 265 265 263 262 261 261 260 260 262 262 261 259 256 256 258 260 262 263
337 335 330 327 325 324 323 322 319 314 309 305 302 299 296 292 287 283 277 272 270 269 267 265 264 264 263 262 264 265 264 262 260 260 261 263 264 265
338 336 333 329 325 324 323 320 318 316 311 306 303 300 296 292 289 284 279 274 272 271 270 268 267 265 264 264 266 269 267 266 264 264 264 265 266 266
335 334 332 328 324 322 321 320 318 314 310 306 303 301 298 295 290 285 281 279 275 273 271 270 268 268 267 266 267 269 270 270 268 266 267 267 267 267
334 333 330 326 323 321 321 320 319 316 313 309 304 301 298 297 294 289 283 279 276 273 271 271 272 272 270 270 271 270 271 272 272 270 268 269 269 269
331 329 327 327 325 324 323 321 319 317 315 312 307 303 299 298 296 294 290 284 280 277 275 275 276 275 275 274 275 273 272 273 273 274 274 275 274 272
330 328 326 326 325 325 324 322 320 318 315 312 308 305 302 299 298 295 292 288 284 282 281 280 279 279 278 277 278 277 275 274 274 275 275 276 275 274
Height
5735 5735 5734 5734 5734 5734 5734 5734 5735 5736 5737 5737 5738 5739 5740 5742 5743 5745 5747 5749 5750 5752 5754 5756 5758 5759 5761 5763 5764 5766 5767 5768 5769 5771 5772 5772 5773 5774
5728 5728 5727 5727 5727 5726 5726 5727 5727 5728 5729 5730 5730 5731 5733 5734 5735 5737 5739 5741 5742 5745 5747 5748 5750 5752 5753 5755 5757 5758 5760 5761 5762 5763 5764 5765 5766 5767
5722 5721 5720 5719 5719 5719 5719 5719 5720 5720 5721 5722 5723 5724 5725 5726 5727 5729 5731 5733 5735 5737 5739 5741 5742 5744 5745 5747 5749 5750 5752 5753 5754 5755 5756 5758 5759 5760
5715 5715 5714 5713 5713 5712 5713 5713 5713 5713 5714 5715 5716 5717 5717 5718 5719 5721 5723 5725 5727 5729 5731 5732 5734 5736 5737 5739 5741 5742 5744 5745 5746 5747 5749 5750 5751 5752
5710 5709 5708 5707 5707 5706 5706 5706 5706 5707 5707 5708 5709 5710 5710 5711 5712 5713 5715 5717 5719 5720 5722 5724 5726 5728 5729 5731 5733 5734 5736 5737 5738 5739 5741 5742 5743 5744
5704 5703 5702 5702 5701 5700 5700 5700 5700 5700 5700 5701 5701 5702 5703 5703 5704 5705 5707 5709 5711 5712 5714 5716 5718 5719 5721 5723 5724 5726 5727 5729 5730 5731 5733 5734 5735 5736
5699 5698 5697 5696 5695 5694 5694 5693 5693 5693 5693 5693 5694 5695 5695 5696 5696 5697 5699 5701 5702 5704 5706 5708 5709 5711 5713 5714 5716 5717 5719 5720 5722 5723 5724 5726 5727 5729
5694 5693 5692 5691 5690 5689 5688 5687 5687 5686 5686 5686 5687 5687 5687 5688 5689 5690 5691 5693 5694 5696 5697 5699 5701 5703 5704 5706 5707 5709 5711 5712 5714 5715 5716 5718 5719 5720
5689 5688 5687 5686 5685 5684 5682 5681 5681 5680 5679 5679 5679 5679 5679 5680 5681 5682 5683 5684 5686 5687 5689 5691 5692 5694 5696 5697 5699 5700 5702 5704 5705 5707 5708 5709 5711 5712
5684 5683 5682 5680 5679 5678 5677 5675 5674 5673 5672 5672 5672 5672 5672 5673 5674 5675 5675 5677 5678 5679 5680 5682 5684 5685 5687 5688 5690 5692 5694 5695 5697 5698 5700 5701 5702 5704
5680 5678 5677 5675 5674 5673 5671 5670 5669 5668 5667 5666 5666 5665 5665 5666 5666 5667 5668 5669 5671 5672 5673 5674 5676 5677 5679 5680 5682 5683 5685 5687 5689 5690 5692 5693 5694 5695
5676 5674 5673 5671 5669 5667 5666 5664 5663 5662 5661 5660 5660 5659 5659 5659 5659 5660 5661 5662 5663 5664 5666 5667 5668 5670 5671 5673 5674 5675 5677 5679 5680 5682 5683 5685 5686 5687
5673 5671 5669 5667 5665 5663 5662 5660 5659 5657 5656 5655 5654 5654 5653 5653 5652 5653 5654 5655 5656 5657 5659 5660 5661 5662 5664 5665 5666 5667 5669 5670 5672 5673 5675 5676 5677 5679
5670 5668 5666 5664 5662 5660 5658 5656 5655 5653 5652 5651 5650 5649 5648 5647 5647 5647 5647 5648 5649 5650 5651 5652 5654 5655 5657 5658 5659 5660 5661 5662 5663 5665 5667 5668 5669 5670
5667 5665 5663 5661 5659 5657 5655 5653 5651 5649 5648 5647 5645 5644 5643 5642 5642 5642 5642 5642 5643 5644 5645 5646 5647 5648 5649 5650 5651 5652 5653 5654 5656 5657 5659 5660 5661 5662
5664 5662 5660 5658 5656 5654 5652 5650 5648 5646 5644 5643 5641 5640 5639 5638 5637 5637 5637 5637 5638 5639 5639 5640 5641 5642 5642 5643 5644 5645 5646 5647 5648 5649 5650 5652 5653 5653
5662 5660 5658 5655 5653 5651 5649 5647 5644 5642 5641 5639 5637 5636 5635 5634 5633 5632 5632 5632 5633 5633 5633 5634 5634 5635 5636 5636 5637 5638 5638 5639 5640 5641 5642 5643 5644 5645
5660 5658 5655 5653 5651 5648 5646 5644 5641 5639 5637 5635 5634 5632 5631 5629 5628 5628 5627 5627 5627 5627 5628 5628 5628 5629 5630 5630 5631 5631 5631 5632 5633 5633 5634 5635 5636 5636
5659 5656 5653 5650 5648 5645 5643 5641 5638 5636 5634 5632 5630 5628 5627 5625 5624 5623 5622 5621 5621 5621 5622 5622 5622 5622 5623 5623 5624 5624 5624 5624 5625 5625 5626 5626 5627 5627
5656 5653 5650 5648 5645 5642 5640 5637 5635 5632 5630 5628 5626 5624 5622 5620 5619 5618 5617 5616 5616 5616 5615 5615 5615 5615 5616 5616 5617 5616 5616 5616 5616 5616 5616 5616 5617 5617
5654 5651 5648 5645 5642 5639 5636 5634 5631 5628 5626 5623 5621 5620 5618 5616 5614 5613 5611 5611 5610 5609 5609 5609 5608 5608 5608 5608 5608 5608 5608 5607 5606 5606 5606 5606 5606 5606
5651 5648 5645 5641 5638 5635 5632 5630 5627 5624 5622 5619 5617 5615 5613 5611 5609 5608 5606 5605 5604 5603 5602 5602 5601 5601 5600 5600 5600 5599 5599 5598 5597 5596 5596 5596 5595 5596
5648 5645 5641 5638 5635 5632 5629 5626 5623 5620 5617 5615 5612 5610 5608 5606 5604 5602 5600 5599 5598 5597 5595 5595 5594 5593 5592 5591 5591 5590 5590 5589 5588 5587 5587 5586 5586 5585